DLH1258 EDDH-EDDP

Flight info

Callsign DLH1258
Flight time 0h 35m
Altitude 23000
Route AMLUH2G/33 AMLUH M852 DENIX Z113 SAS Z88 UPDAT/N0449F270 T236 ADMOS/N0423F230 T959 KOJEC KOJEC1R
Aircraft A343/H-SDE2E3FGHIJ4J5M1RWXY/LB1D1

Departure

Time 2026-05-07 19:33
Airport Hamburg Helmut Schmidt Airport (EDDH)

Arrival

Time 2026-05-07 20:08
Airport Leipzig/Halle Airport (EDDP)
Time Latitude Longitude Altitude Speed Heading
2026-05-07 19:12 53.63254 9.99861 48 ft 0 kts 135°
2026-05-07 19:25 53.63267 9.99840 44 ft 3 kts 135°
2026-05-07 19:25 53.63280 9.99817 47 ft 3 kts 146°
2026-05-07 19:25 53.63298 9.99803 45 ft 3 kts 191°
2026-05-07 19:26 53.63307 9.99805 44 ft 0 kts 210°
2026-05-07 19:28 53.63298 9.99794 45 ft 7 kts 216°
2026-05-07 19:29 53.63235 9.99758 49 ft 10 kts 175°
2026-05-07 19:29 53.63171 9.99808 49 ft 10 kts 153°
2026-05-07 19:29 53.63105 9.99865 49 ft 11 kts 153°
2026-05-07 19:29 53.63038 9.99923 49 ft 11 kts 153°
2026-05-07 19:30 53.62970 9.99982 49 ft 11 kts 155°
2026-05-07 19:30 53.62898 10.00033 50 ft 11 kts 169°
2026-05-07 19:30 53.62853 9.99990 45 ft 0 kts 238°
2026-05-07 19:30 53.62845 9.99963 50 ft 8 kts 243°
2026-05-07 19:31 53.62818 9.99874 48 ft 8 kts 243°
2026-05-07 19:31 53.62819 9.99788 48 ft 6 kts 312°
2026-05-07 19:31 53.62858 9.99752 47 ft 7 kts 334°
2026-05-07 19:31 53.62923 9.99697 50 ft 20 kts 334°
2026-05-07 19:32 53.63202 9.99456 49 ft 73 kts 333°
2026-05-07 19:32 53.63809 9.98930 45 ft 121 kts 332°
2026-05-07 19:32 53.64686 9.98165 47 ft 160 kts 333°
2026-05-07 19:32 53.65721 9.97295 461 ft 165 kts 336°
2026-05-07 19:33 53.66750 9.96373 948 ft 170 kts 335°
2026-05-07 19:33 53.67812 9.95411 1390 ft 181 kts 337°
2026-05-07 19:33 53.69066 9.94695 1675 ft 199 kts 356°
2026-05-07 19:33 53.70451 9.94752 2154 ft 205 kts 17°
2026-05-07 19:34 53.71703 9.95899 2767 ft 208 kts 49°
2026-05-07 19:34 53.72546 9.97891 3565 ft 208 kts 62°
2026-05-07 19:34 53.73265 10.00030 4358 ft 210 kts 63°
2026-05-07 19:34 53.73808 10.02329 5116 ft 212 kts 80°
2026-05-07 19:35 53.73754 10.04821 5790 ft 221 kts 105°
2026-05-07 19:35 53.73085 10.07305 6183 ft 243 kts 118°
2026-05-07 19:35 53.72208 10.09836 6755 ft 256 kts 118°
2026-05-07 19:35 53.71294 10.12464 7461 ft 262 kts 118°
2026-05-07 19:36 53.70374 10.15154 8210 ft 268 kts 119°
2026-05-07 19:36 53.69413 10.17891 8925 ft 273 kts 123°
2026-05-07 19:36 53.68103 10.20241 9624 ft 280 kts 144°
2026-05-07 19:36 53.66325 10.21629 10231 ft 284 kts 163°
2026-05-07 19:37 53.64370 10.22544 10627 ft 300 kts 165°
2026-05-07 19:37 53.62294 10.23453 10929 ft 317 kts 165°
2026-05-07 19:37 53.60131 10.24413 11225 ft 332 kts 165°
2026-05-07 19:37 53.57847 10.25441 11543 ft 347 kts 165°
2026-05-07 19:38 53.55465 10.26522 11871 ft 361 kts 165°
2026-05-07 19:38 53.53009 10.27641 12348 ft 369 kts 165°
2026-05-07 19:38 53.50507 10.28781 12939 ft 375 kts 165°
2026-05-07 19:38 53.47974 10.29936 13555 ft 380 kts 165°
2026-05-07 19:39 53.45402 10.31108 14157 ft 384 kts 165°
2026-05-07 19:39 53.42807 10.32288 14740 ft 388 kts 165°
2026-05-07 19:39 53.40217 10.33470 15317 ft 391 kts 165°
2026-05-07 19:39 53.37540 10.34678 15910 ft 395 kts 165°
2026-05-07 19:40 53.34907 10.35858 16507 ft 398 kts 166°
2026-05-07 19:40 53.32222 10.37058 17090 ft 401 kts 166°
2026-05-07 19:40 53.29514 10.38268 17662 ft 405 kts 166°
2026-05-07 19:40 53.26777 10.39491 18239 ft 408 kts 166°
2026-05-07 19:41 53.24022 10.40721 18748 ft 412 kts 166°
2026-05-07 19:41 53.21241 10.41963 19254 ft 415 kts 166°
2026-05-07 19:41 53.18441 10.43211 19753 ft 418 kts 166°
2026-05-07 19:41 53.15616 10.44460 20252 ft 421 kts 167°
2026-05-07 19:42 53.12708 10.45251 20740 ft 423 kts 177°
2026-05-07 19:42 53.09768 10.45372 21234 ft 425 kts 181°
2026-05-07 19:42 53.06829 10.45242 21708 ft 428 kts 184°
2026-05-07 19:42 53.03854 10.44970 22186 ft 430 kts 185°
2026-05-07 19:43 53.00851 10.44633 22652 ft 433 kts 185°
2026-05-07 19:43 52.97839 10.44282 23029 ft 437 kts 185°
2026-05-07 19:43 52.94795 10.43937 23109 ft 438 kts 185°
2026-05-07 19:43 52.91740 10.43608 23105 ft 439 kts 185°
2026-05-07 19:44 52.88689 10.43294 23106 ft 439 kts 185°
2026-05-07 19:44 52.85628 10.42988 23104 ft 440 kts 185°
2026-05-07 19:44 52.82574 10.42688 23108 ft 440 kts 185°
2026-05-07 19:44 52.79551 10.42394 23102 ft 440 kts 185°
2026-05-07 19:45 52.76498 10.42097 23106 ft 440 kts 184°
2026-05-07 19:45 52.73457 10.41628 23106 ft 439 kts 191°
2026-05-07 19:45 52.70514 10.40358 23104 ft 437 kts 202°
2026-05-07 19:45 52.67798 10.38149 23106 ft 435 kts 211°
2026-05-07 19:46 52.65109 10.35871 23106 ft 436 kts 203°
2026-05-07 19:46 52.62190 10.34456 23105 ft 438 kts 191°
2026-05-07 19:46 52.59148 10.34167 23108 ft 440 kts 177°
2026-05-07 19:46 52.56146 10.35130 23104 ft 442 kts 162°
2026-05-07 19:47 52.53317 10.37120 23101 ft 443 kts 154°
2026-05-07 19:47 52.50612 10.39593 23106 ft 445 kts 150°
2026-05-07 19:47 52.48005 10.42256 23100 ft 445 kts 148°
2026-05-07 19:47 52.45394 10.45017 23100 ft 445 kts 148°
2026-05-07 19:48 52.42787 10.47762 23101 ft 445 kts 148°
2026-05-07 19:48 52.40161 10.50476 23102 ft 446 kts 149°
2026-05-07 19:48 52.37525 10.53148 23101 ft 446 kts 149°
2026-05-07 19:48 52.34878 10.55792 23101 ft 446 kts 149°
2026-05-07 19:49 52.32218 10.58423 23105 ft 446 kts 150°
2026-05-07 19:49 52.29555 10.61045 23101 ft 446 kts 150°
2026-05-07 19:49 52.26888 10.63663 23101 ft 446 kts 150°
2026-05-07 19:49 52.24224 10.66276 23098 ft 447 kts 150°
2026-05-07 19:50 52.21561 10.68885 23108 ft 447 kts 150°
2026-05-07 19:50 52.18902 10.71489 23102 ft 447 kts 150°
2026-05-07 19:50 52.16234 10.74099 23097 ft 447 kts 150°
2026-05-07 19:50 52.13568 10.76705 23107 ft 447 kts 150°
2026-05-07 19:51 52.10906 10.79303 23095 ft 447 kts 150°
2026-05-07 19:51 52.08270 10.81872 23105 ft 447 kts 150°
2026-05-07 19:51 52.05600 10.84471 23095 ft 447 kts 150°
2026-05-07 19:51 52.02888 10.87106 23096 ft 448 kts 150°
2026-05-07 19:52 52.00255 10.89662 22781 ft 447 kts 150°
2026-05-07 19:52 51.97585 10.92250 22152 ft 445 kts 150°
2026-05-07 19:52 51.94944 10.94806 21686 ft 439 kts 150°
2026-05-07 19:52 51.92329 10.97334 21164 ft 435 kts 150°
2026-05-07 19:53 51.89733 10.99839 20647 ft 432 kts 150°
2026-05-07 19:53 51.87193 11.02288 20237 ft 427 kts 150°
2026-05-07 19:53 51.84643 11.04742 20089 ft 426 kts 150°
2026-05-07 19:53 51.82118 11.07169 19644 ft 422 kts 150°
2026-05-07 19:54 51.79594 11.09592 19096 ft 420 kts 150°
2026-05-07 19:54 51.77085 11.11997 18590 ft 418 kts 150°
2026-05-07 19:54 51.74597 11.14380 18037 ft 415 kts 150°
2026-05-07 19:54 51.72123 11.16783 17461 ft 413 kts 147°
2026-05-07 19:55 51.69979 11.19828 16897 ft 411 kts 129°
2026-05-07 19:55 51.68480 11.23710 16417 ft 407 kts 116°
2026-05-07 19:55 51.67267 11.27803 15932 ft 403 kts 114°
2026-05-07 19:55 51.66089 11.31891 15465 ft 399 kts 114°
2026-05-07 19:56 51.64926 11.35925 15019 ft 395 kts 114°
2026-05-07 19:56 51.63768 11.39916 14543 ft 391 kts 114°
2026-05-07 19:56 51.62615 11.43874 13974 ft 391 kts 114°
2026-05-07 19:56 51.61474 11.47776 13308 ft 385 kts 114°
2026-05-07 19:57 51.60343 11.51641 12646 ft 380 kts 114°
2026-05-07 19:57 51.59216 11.55494 11981 ft 380 kts 114°
2026-05-07 19:57 51.58334 11.59476 11361 ft 376 kts 102°
2026-05-07 19:57 51.57946 11.63599 10736 ft 368 kts 95°
2026-05-07 19:58 51.57694 11.67601 10136 ft 349 kts 94°
2026-05-07 19:58 51.57456 11.71361 9486 ft 328 kts 94°
2026-05-07 19:58 51.57233 11.74918 8831 ft 312 kts 94°
2026-05-07 19:58 51.57021 11.78308 8188 ft 299 kts 94°
2026-05-07 19:59 51.56821 11.81531 7553 ft 289 kts 94°
2026-05-07 19:59 51.56587 11.84677 6920 ft 279 kts 101°
2026-05-07 19:59 51.55798 11.87454 6283 ft 273 kts 128°
2026-05-07 19:59 51.54328 11.89318 5635 ft 270 kts 155°
2026-05-07 20:00 51.52516 11.89843 5136 ft 263 kts 184°
2026-05-07 20:00 51.50870 11.88910 4984 ft 244 kts 216°
2026-05-07 20:00 51.49808 11.86865 4934 ft 238 kts 244°
2026-05-07 20:00 51.49216 11.84420 4453 ft 235 kts 250°
2026-05-07 20:01 51.48363 11.82186 4064 ft 237 kts 221°
2026-05-07 20:01 51.46926 11.81014 3966 ft 232 kts 188°
2026-05-07 20:01 51.45347 11.81233 3912 ft 229 kts 157°
2026-05-07 20:01 51.44082 11.82703 3567 ft 227 kts 126°
2026-05-07 20:02 51.43260 11.84862 3256 ft 227 kts 115°
2026-05-07 20:02 51.42561 11.87121 3013 ft 224 kts 114°
2026-05-07 20:02 51.41911 11.89392 2974 ft 224 kts 108°
2026-05-07 20:02 51.41462 11.91694 2966 ft 213 kts 104°
2026-05-07 20:03 51.41076 11.93934 2860 ft 205 kts 103°
2026-05-07 20:03 51.40718 11.96105 2749 ft 195 kts 103°
2026-05-07 20:03 51.40405 11.98100 2714 ft 176 kts 102°
2026-05-07 20:03 51.40261 11.99996 2550 ft 169 kts 89°
2026-05-07 20:04 51.40309 12.01890 2483 ft 170 kts 85°
2026-05-07 20:04 51.40379 12.03764 2377 ft 168 kts 85°
2026-05-07 20:04 51.40464 12.05631 2269 ft 169 kts 84°
2026-05-07 20:04 51.40553 12.07495 2072 ft 168 kts 84°
2026-05-07 20:05 51.40635 12.09295 1839 ft 156 kts 84°
2026-05-07 20:05 51.40713 12.10957 1637 ft 144 kts 84°
2026-05-07 20:05 51.40788 12.12539 1441 ft 143 kts 84°
2026-05-07 20:05 51.40862 12.14124 1254 ft 143 kts 84°
2026-05-07 20:06 51.40911 12.15184 1114 ft 143 kts 84°
2026-05-07 20:06 51.40983 12.16778 929 ft 144 kts 84°
2026-05-07 20:06 51.41058 12.18369 744 ft 143 kts 82°
2026-05-07 20:06 51.41136 12.19952 562 ft 142 kts 84°
2026-05-07 20:07 51.41217 12.21501 460 ft 129 kts 85°
2026-05-07 20:07 51.41269 12.22650 464 ft 77 kts 86°
2026-05-07 20:07 51.41303 12.23405 468 ft 62 kts 86°
2026-05-07 20:07 51.41327 12.24032 471 ft 52 kts 86°
2026-05-07 20:08 51.41354 12.24436 469 ft 22 kts 63°
2026-05-07 20:08 51.41470 12.24522 478 ft 16 kts 13°
2026-05-07 20:08 51.41563 12.24557 473 ft 8 kts 13°
2026-05-07 20:08 51.41565 12.24557 478 ft 0 kts 13°
2026-05-07 20:10 51.41575 12.24561 478 ft 6 kts 13°
2026-05-07 20:10 51.41631 12.24560 477 ft 8 kts 334°
2026-05-07 20:11 51.41651 12.24476 471 ft 12 kts 275°
2026-05-07 20:11 51.41644 12.24319 474 ft 14 kts 265°
2026-05-07 20:11 51.41638 12.24167 473 ft 14 kts 266°
2026-05-07 20:11 51.41631 12.24010 475 ft 15 kts 265°
2026-05-07 20:12 51.41625 12.23893 473 ft 8 kts 266°
2026-05-07 20:12 51.41621 12.23798 469 ft 10 kts 266°
2026-05-07 20:12 51.41616 12.23678 471 ft 12 kts 265°
2026-05-07 20:12 51.41610 12.23542 468 ft 13 kts 266°
2026-05-07 20:13 51.41604 12.23395 467 ft 13 kts 266°
2026-05-07 20:13 51.41600 12.23262 468 ft 11 kts 271°
2026-05-07 20:13 51.41614 12.23151 468 ft 9 kts 285°
2026-05-07 20:13 51.41632 12.23046 468 ft 11 kts 285°
2026-05-07 20:14 51.41651 12.22933 466 ft 11 kts 285°
2026-05-07 20:14 51.41672 12.22813 468 ft 12 kts 285°
2026-05-07 20:14 51.41696 12.22680 466 ft 13 kts 286°
2026-05-07 20:14 51.41720 12.22530 462 ft 15 kts 285°
2026-05-07 20:15 51.41748 12.22363 459 ft 16 kts 285°
2026-05-07 20:15 51.41780 12.22177 453 ft 17 kts 285°
2026-05-07 20:15 51.41803 12.22049 451 ft 0 kts 285°
2026-05-07 20:16 51.41805 12.22036 450 ft 6 kts 285°
2026-05-07 20:16 51.41833 12.21934 448 ft 11 kts 316°
2026-05-07 20:16 51.41862 12.21924 448 ft 1 kts 23°
2026-05-07 20:16 51.41892 12.21944 446 ft 5 kts 15°
2026-05-07 20:17 51.41907 12.21951 429 ft 2 kts 16°
2026-05-07 20:17 51.41918 12.21956 446 ft 1 kts 17°